DL7HMX-13 Weather Reports


time (UTC)temp
C
wind
direction
speed
KPH
gust
KPH
rain 1hr
cm
rain 24hr
cm
rain mn
cm
humidity
%
barometer
mb
20260507070020 11 166 3.2 9.7 0.00 0.74 0.00 92 1013.0
20260507065022 11 143 4.8 11.3 0.00 0.74 0.00 92 1012.9
20260507064026 10 152 8.0 12.9 0.00 0.74 0.00 94 1012.8
20260507063028 10 162 3.2 9.7 0.00 0.74 0.00 95 1012.9
20260507062032 10 148 4.8 6.4 0.00 0.74 0.00 95 1012.9
20260507061019 10 126 1.6 3.2 0.00 0.74 0.00 93 1012.8
20260507060021 10 143 1.6 4.8 0.00 0.74 0.00 92 1012.6
20260507055024 10 125 0.0 1.6 0.00 0.74 0.00 93 1012.7
20260507054026 10 113 0.0 3.2 0.00 0.74 0.00 94 1012.6
20260507053030 10 121 0.0 1.6 0.00 0.74 0.00 94 1012.6
20260507052016 10 95 0.0 1.6 0.00 0.74 0.00 95 1012.5
20260507051019 10 0.0 0.0 0.00 0.74 0.00 97 1012.3
20260507050022 10 93 0.0 1.6 0.00 0.74 0.00 97 1012.2
20260507045025 10 82 0.0 1.6 0.00 0.74 0.00 99 1012.1
20260507044028 8 0.0 0.0 0.00 0.74 0.00 99 1012.0
20260507043032 8 0.0 0.0 0.00 0.74 0.00 99 1012.0
20260507042019 8 102 0.0 1.6 0.00 0.74 0.00 99 1011.8
20260507041021 8 0.0 0.0 0.00 0.74 0.00 99 1011.6
20260507040024 8 0.0 0.0 0.00 0.74 0.00 99 1011.7
20260507035028 8 0.0 0.0 0.00 0.74 0.00 99 1011.6
20260507034030 8 0.0 0.0 0.00 0.74 0.00 98 1011.4
20260507033016 8 121 1.6 1.6 0.00 0.74 0.00 99 1011.4
20260507032019 8 128 1.6 3.2 0.00 0.74 0.00 99 1011.3
20260507031024 8 0.0 0.0 0.00 0.74 0.00 99 1011.3
20260507030025 8 120 1.6 1.6 0.00 0.74 0.00 98 1011.2
20260507025028 8 130 3.2 3.2 0.00 0.74 0.00 98 1011.2
20260507024031 8 121 1.6 3.2 0.00 0.74 0.00 98 1011.2
20260507023018 8 128 0.0 1.6 0.00 0.74 0.00 99 1011.3
20260507022021 8 117 0.0 1.6 0.00 0.74 0.00 99 1011.3
20260507021025 8 0.0 0.0 0.00 0.74 0.00 98 1011.3
20260507020027 8 0.0 0.0 0.00 0.74 0.00 98 1011.2
20260507015030 9 118 0.0 1.6 0.00 0.74 0.00 97 1011.2
20260507014017 9 135 3.2 4.8 0.00 0.74 0.00 97 1011.1
20260507013019 9 140 3.2 6.4 0.00 0.74 0.00 98 1011.0
20260507012022 9 108 1.6 4.8 0.00 0.74 0.00 98 1010.8
20260507011025 9 102 0.0 3.2 0.00 0.74 0.00 98 1010.8
20260507010029 10 127 3.2 4.8 0.00 0.74 0.00 95 1010.6
20260507005032 10 160 6.4 11.3 0.00 0.74 0.00 95 1010.5
20260507004018 10 157 4.8 9.7 0.00 0.74 0.00 95 1010.4
20260507003021 10 160 4.8 6.4 0.00 0.74 0.00 94 1010.4
20260507002025 10 181 4.8 11.3 0.00 0.74 0.00 94 1010.5
20260507001027 10 167 4.8 9.7 0.00 0.74 0.00 94 1010.5
20260507000030 11 179 4.8 9.7 0.00 0.74 0.00 94 1010.5
20260506235017 11 192 4.8 11.3 0.00 0.74 0.00 93 1010.5
20260506234019 11 174 4.8 9.7 0.00 0.74 0.00 93 1010.4
20260506233023 11 130 1.6 6.4 0.00 0.76 0.00 94 1010.3
20260506232026 11 155 3.2 6.4 0.00 0.76 0.00 94 1010.3
20260506231028 11 168 1.6 4.8 0.00 0.76 0.00 93 1010.3
20260506230032 11 170 3.2 9.7 0.00 0.76 0.00 94 1010.2
20260506225018 11 149 3.2 9.7 0.00 0.76 0.00 93 1010.2
20260506224022 11 213 3.2 9.7 0.00 0.76 0.00 93 1010.1
20260506223024 11 246 4.8 9.7 0.00 0.76 0.00 94 1010.1
20260506222027 11 178 3.2 6.4 0.00 0.76 0.00 96 1009.9
20260506221029 11 195 1.6 6.4 0.00 0.79 0.00 97 1009.7
20260506220017 11 127 1.6 4.8 0.03 0.79 0.79 96 1009.5
20260506215019 11 166 1.6 9.7 0.03 0.79 0.79 96 1009.4
20260506214024 11 138 1.6 3.2 0.03 0.79 0.79 97 1009.3
20260506213027 11 168 4.8 6.4 0.03 0.79 0.79 96 1009.2
20260506212029 12 190 3.2 9.7 0.03 0.79 0.79 97 1009.2
20260506211031 12 173 3.2 6.4 0.03 0.79 0.79 96 1009.2
20260506210018 12 181 4.8 9.7 0.00 0.76 0.76 96 1009.1
20260506205022 12 169 3.2 9.7 0.00 0.76 0.76 94 1009.0
20260506204024 12 239 8.0 16.1 0.00 0.76 0.76 94 1009.0
20260506203027 12 243 8.0 20.9 0.00 0.76 0.76 96 1008.8
20260506202032 12 192 4.8 11.3 0.00 0.76 0.76 98 1008.6
20260506201017 12 196 4.8 16.1 0.00 0.76 0.76 98 1008.4
20260506200020 12 201 4.8 11.3 0.00 0.76 0.76 99 1008.3
20260506195021 12 242 8.0 17.7 0.00 0.76 0.76 99 1008.0
20260506194022 12 177 6.4 11.3 0.00 0.76 0.76 99 1007.3
20260506193023 12 164 3.2 4.8 0.00 0.76 0.76 99 1007.0
20260506192025 13 137 1.6 3.2 0.00 0.76 0.76 99 1006.6
20260506191028 12 126 3.2 4.8 0.00 0.76 0.76 99 1006.5
20260506190030 13 137 0.0 3.2 0.00 0.79 0.76 99 1006.4
20260506185031 13 154 3.2 4.8 0.03 0.81 0.76 99 1006.2
20260506184017 13 84 1.6 3.2 0.08 0.86 0.76 99 1005.8
20260506183020 13 312 6.4 11.3 0.20 0.86 0.76 99 1005.6
20260506182022 13 44 3.2 12.9 0.41 0.86 0.76 99 1005.3
20260506181025 13 85 0.0 3.2 0.66 0.86 0.76 99 1005.5
20260506180027 13 76 1.6 4.8 0.71 0.86 0.76 99 1005.5
20260506175030 13 356 8.0 17.7 0.69 0.84 0.74 99 1005.3
20260506174017 13 20 6.4 17.7 0.64 0.79 0.69 98 1005.2
20260506173021 13 285 12.9 38.6 0.51 0.66 0.56 97 1005.1
20260506172023 13 270 20.9 37.0 0.30 0.46 0.36 95 1004.7
20260506171030 18 299 20.9 46.7 0.05 0.20 0.10 72 1003.2
20260506170017 20 261 8.0 17.7 0.00 0.15 0.05 48 1002.2
20260506165021 21 0.0 0.0 0.00 0.15 0.05 47 1001.4
20260506164022 21 0.0 0.0 0.00 0.15 0.05 42 1001.2
20260506163024 21 0.0 0.0 0.00 0.15 0.05 39 1001.4
20260506162027 22 0.0 0.0 0.00 0.15 0.05 38 1001.7
20260506161028 22 90 0.0 1.6 0.00 0.15 0.05 38 1002.0
20260506160032 22 0.0 0.0 0.00 0.15 0.05 39 1002.1
20260506155018 22 73 0.0 3.2 0.00 0.15 0.05 39 1002.2
20260506154022 23 76 0.0 3.2 0.00 0.15 0.05 38 1002.3
20260506153024 24 57 3.2 6.4 0.00 0.15 0.05 36 1002.3
20260506152026 23 82 3.2 6.4 0.00 0.15 0.05 36 1002.4
20260506151029 24 61 1.6 9.7 0.00 0.15 0.05 35 1002.6
20260506150031 24 61 4.8 9.7 0.00 0.15 0.05 36 1002.8
20260506145019 24 59 3.2 12.9 0.00 0.15 0.05 36 1002.9
20260506144021 23 60 4.8 9.7 0.00 0.15 0.05 37 1003.0
20260506143023 23 31 3.2 9.7 0.00 0.15 0.05 37 1003.1
20260506142027 23 62 3.2 11.3 0.00 0.15 0.05 39 1003.1
20260506141029 23 58 3.2 6.4 0.00 0.15 0.05 39 1003.3
20260506140016 23 43 3.2 11.3 0.00 0.15 0.05 40 1003.5
20260506135019 22 62 4.8 14.5 0.00 0.15 0.05 42 1003.7
20260506134022 22 50 4.8 11.3 0.00 0.15 0.05 43 1003.7
20260506133025 23 76 3.2 12.9 0.00 0.15 0.05 41 1004.0
20260506132028 22 90 4.8 11.3 0.00 0.15 0.05 43 1004.1
20260506131030 23 74 3.2 6.4 0.00 0.15 0.05 42 1004.1
20260506130019 23 45 3.2 16.1 0.00 0.15 0.05 44 1004.2
20260506125020 22 75 4.8 11.3 0.00 0.15 0.05 45 1004.3
20260506124024 22 43 4.8 16.1 0.00 0.15 0.05 45 1004.4
20260506123026 23 31 3.2 11.3 0.00 0.15 0.05 43 1004.7
20260506122029 22 72 3.2 12.9 0.00 0.15 0.05 48 1004.8
20260506121017 22 83 1.6 9.7 0.00 0.15 0.05 49 1005.1
20260506120019 23 34 3.2 11.3 0.00 0.15 0.05 49 1005.2
20260506115022 22 87 3.2 6.4 0.00 0.15 0.05 52 1005.5
20260506114025 21 75 1.6 4.8 0.00 0.15 0.05 56 1005.6
20260506113028 20 120 4.8 9.7 0.00 0.15 0.05 56 1005.6
20260506112032 21 52 1.6 9.7 0.00 0.15 0.05 56 1005.8
20260506111017 20 90 1.6 4.8 0.00 0.15 0.05 58 1006.0
20260506110020 21 101 1.6 3.2 0.00 0.15 0.05 57 1006.1
20260506105023 20 67 1.6 6.4 0.00 0.15 0.05 59 1006.3
20260506104016 21 54 3.2 11.3 0.00 0.15 0.05 57 1006.4
20260506103018 20 76 3.2 9.7 0.00 0.15 0.05 58 1006.5
20260506102021 20 56 4.8 12.9 0.00 0.15 0.05 60 1006.6
20260506101024 20 92 1.6 3.2 0.00 0.15 0.05 60 1006.8
20260506100018 18 57 3.2 6.4 0.00 0.15 0.05 61 1006.9
20260506095021 19 66 3.2 6.4 0.00 0.15 0.05 61 1006.9
20260506094024 20 63 3.2 9.7 0.00 0.15 0.05 60 1006.9
20260506093026 18 81 3.2 6.4 0.00 0.15 0.05 62 1007.0
20260506092030 19 77 1.6 4.8 0.00 0.15 0.05 63 1006.9
20260506091016 19 70 3.2 9.7 0.00 0.15 0.05 66 1007.0
20260506090020 19 56 3.2 9.7 0.00 0.15 0.05 65 1007.2
20260506085023 18 57 3.2 11.3 0.00 0.15 0.05 68 1007.3
20260506084025 18 81 1.6 3.2 0.00 0.15 0.05 69 1007.4
20260506083029 17 59 3.2 9.7 0.00 0.15 0.05 73 1007.5
20260506082031 17 54 1.6 9.7 0.00 0.15 0.05 72 1007.5
20260506081017 17 96 1.6 3.2 0.00 0.15 0.05 73 1007.5
20260506073028 16 69 1.6 4.8 0.00 0.15 0.05 77 1007.8
20260506072030 16 66 1.6 6.4 0.00 0.15 0.05 78 1007.9
20260506071018 15 99 1.6 3.2 0.00 0.15 0.05 81 1008.1